This demonstration page uses our WeatherBlox Daily Observations layout. Learn more.

Left ArrowRight Arrow

Hourly Observations for February 25, 2022

Temp ( °F °C ) Dew Point ( °F °C ) Humidity (%) Winds ( mph kmh ) Pressure ( in mb ) Visibility ( mi km ) Precip ( " mm )
12:15 am 00:15 Clear 3 -16.1 -2 -18.8 80 80 Calm 30.63 1037 10 16 0.00 0.00
12:35 am 00:35 Clear 1 -17.1 -4 -19.9 79 79 Calm 30.65 1038 10 16 0.00 0.00
12:55 am 00:55 Clear -1 -18.3 -7 -21.4 77 77 Calm 30.68 1039 10 16 0.00 0.00
1:15 am 01:15 Clear 0 -17.8 -5 -20.4 80 80 Calm 30.67 1039 10 16 0.00 0.00
1:35 am 01:35 Clear 0 -17.9 -5 -20.4 81 81 Calm 30.67 1039 10 16 0.00 0.00
1:55 am 01:55 Clear -1 -18.1 -5 -20.6 81 81 Calm 30.68 1039 10 16 0.00 0.00
2:15 am 02:15 Clear 0 -17.7 -4 -20.1 82 82 Calm 30.68 1039 10 16 0.00 0.00
2:35 am 02:35 Clear -1 -18.4 -6 -21 80 80 Calm 30.68 1039 10 16 0.00 0.00
2:55 am 02:55 Clear -1 -18.4 -6 -20.9 81 81 Calm 30.69 1039 10 16 0.00 0.00
3:15 am 03:15 Clear -1 -18.5 -6 -21.1 80 80 Calm 30.69 1039 10 16 0.00 0.00
3:35 am 03:35 Clear -1 -18.3 -5 -20.7 82 82 W 3 6 30.69 1039 10 16 0.00 0.00
3:55 am 03:55 Clear -2 -18.9 -6 -21.2 82 82 Calm 30.69 1039 10 16 0.00 0.00
4:15 am 04:15 Clear -2 -18.7 -6 -21.1 82 82 Calm 30.69 1039 10 16 0.00 0.00
4:35 am 04:35 Clear -1 -18.3 -5 -20.8 81 81 Calm 30.70 1040 10 16 0.00 0.00
4:55 am 04:55 Clear -2 -18.7 -6 -21.3 80 80 Calm 30.71 1040 10 16 0.00 0.00
5:15 am 05:15 Clear -1 -18.6 -7 -21.4 79 79 Calm 30.72 1040 10 16 0.00 0.00
5:35 am 05:35 Clear -1 -18.4 -7 -21.5 77 77 Calm 30.72 1040 10 16 0.00 0.00
5:55 am 05:55 Clear 1 -17.5 -5 -20.3 79 79 Calm 30.72 1040 10 16 0.00 0.00
6:15 am 06:15 Clear -1 -18.3 -6 -21.1 79 79 Calm 30.73 1041 10 16 0.00 0.00
6:35 am 06:35 Clear -1 -18.6 -7 -21.8 76 76 Calm 30.73 1041 10 16 0.00 0.00
6:55 am 06:55 Clear 0 -17.7 -5 -20.6 78 78 Calm 30.72 1040 10 16 0.00 0.00
7:15 am 07:15 Clear 2 -16.6 -3 -19.4 79 79 Calm 30.72 1040 10 16 0.00 0.00
7:35 am 07:35 Sunny 2 -16.8 -3 -19.6 79 79 Calm 30.72 1040 10 16 0.00 0.00
7:55 am 07:55 Sunny 3 -15.9 -1 -18.6 80 80 Calm 30.72 1040 10 16 0.00 0.00
8:15 am 08:15 Sunny 5 -14.9 0 -17.7 79 79 Calm 30.72 1040 10 16 0.00 0.00
8:35 am 08:35 Sunny 8 -13.4 2 -16.4 78 78 SSW 3 6 30.70 1040 10 16 0.00 0.00
8:55 am 08:55 Sunny 11 -11.4 5 -15.1 74 74 SW 6 9 30.69 1039 10 16 0.00 0.00
9:15 am 09:15 Sunny 13 -10.5 5 -14.9 70 70 SW 6 9 30.68 1039 10 16 0.00 0.00
9:35 am 09:35 Sunny 15 -9.2 6 -14.7 65 65 SW 8 13 30.67 1039 10 16 0.00 0.00
9:55 am 09:55 Sunny 17 -8.6 5 -15.1 60 60 SW 8 13 30.66 1038 10 16 0.00 0.00
10:15 am 10:15 Sunny 18 -7.7 6 -14.7 58 58 SSW 7 11 30.65 1038 10 16 0.00 0.00
10:35 am 10:35 Sunny 20 -6.8 5 -14.8 53 53 SW 9 15 30.65 1038 10 16 0.00 0.00
10:55 am 10:55 Sunny 22 -5.8 5 -14.9 49 49 SSW 10 17 30.65 1038 10 16 0.00 0.00
11:15 am 11:15 Sunny 22 -5.3 5 -15.2 46 46 SSW 12 19 30.64 1038 10 16 0.00 0.00
11:35 am 11:35 Sunny 23 -5 4 -15.5 44 44 SSW 10 17 30.63 1037 10 16 0.00 0.00
11:55 am 11:55 Sunny 24 -4.6 4 -15.3 43 43 SW 9 15 30.62 1037 10 16 0.00 0.00
12:15 pm 12:15 Sunny 26 -3.6 5 -14.9 42 42 SW 10 17 30.60 1036 10 16 0.00 0.00
12:35 pm 12:35 Sunny 28 -2.3 5 -15.2 37 37 WSW 8 13 30.57 1035 10 16 0.00 0.00
12:55 pm 12:55 Sunny 29 -1.9 4 -15.6 35 35 SW 7 11 30.55 1035 10 16 0.00 0.00
1:15 pm 13:15 Sunny 30 -1.3 4 -15.6 33 33 SSW 9 15 30.54 1034 10 16 0.00 0.00
1:35 pm 13:35 Sunny 31 -0.6 4 -15.6 31 31 SSW 8 13 30.52 1034 7 11 0.00 0.00
1:55 pm 13:55 Partly Cloudy 32 0 4 -15.6 30 30 SSW 5 7 30.51 1033 10 16 0.00 0.00
2:15 pm 14:15 Mostly Cloudy 32 0 3 -15.9 29 29 SW 10 17 30.50 1033 10 16 0.00 0.00
2:35 pm 14:35 Partly Cloudy 33 0.6 3 -16.1 28 28 SSW 7 11 30.48 1032 10 16 0.00 0.00
2:55 pm 14:55 Partly Cloudy 33 0.7 2 -16.6 26 26 SSW 6 9 30.48 1032 10 16 0.00 0.00
3:15 pm 15:15 Sunny 34 1.3 2 -16.4 26 26 SSW 9 15 30.46 1032 10 16 0.00 0.00
3:35 pm 15:35 Sunny 35 1.4 2 -16.7 25 25 SW 7 11 30.46 1032 10 16 0.00 0.00
3:55 pm 15:55 Sunny 36 2 2 -16.4 24 24 WSW 7 11 30.46 1031 10 16 0.00 0.00
4:15 pm 16:15 Sunny 36 2 2 -16.5 24 24 WSW 6 9 30.45 1031 10 16 0.00 0.00
4:35 pm 16:35 Sunny 36 2 2 -16.5 24 24 WSW 5 7 30.45 1031 10 16 0.00 0.00
4:55 pm 16:55 Sunny 35 1.8 1 -17 24 24 SSW 6 9 30.45 1031 10 16 0.00 0.00
5:15 pm 17:15 Sunny 35 1.8 2 -16.8 24 24 SW 3 6 30.45 1031 10 16 0.00 0.00
5:35 pm 17:35 Sunny 35 1.5 2 -16.5 25 25 Calm 30.45 1031 10 16 0.00 0.00
5:55 pm 17:55 Sunny 34 1 2 -16.8 25 25 Calm 30.46 1031 10 16 0.00 0.00
6:15 pm 18:15 Sunny 32 0 2 -16.8 27 27 Calm 30.48 1032 10 16 0.00 0.00
6:35 pm 18:35 Partly Cloudy 30 -0.9 1 -17.1 28 28 Calm 30.48 1032 10 16 0.00 0.00
6:55 pm 18:55 Partly Cloudy 27 -2.6 0 -17.7 31 31 S 5 7 30.51 1033 10 16 0.00 0.00
7:15 pm 19:15 Clear 27 -2.7 1 -17 33 33 S 5 7 30.51 1033 10 16 0.00 0.00
7:35 pm 19:35 Clear 27 -2.9 2 -16.7 34 34 S 6 9 30.51 1033 10 16 0.00 0.00
7:55 pm 19:55 Clear 24 -4.5 1 -17 37 37 S 3 6 30.53 1034 10 16 0.00 0.00
8:15 pm 20:15 Clear 21 -5.9 0 -17.6 39 39 S 6 9 30.54 1034 10 16 0.00 0.00
8:35 pm 20:35 Clear 20 -6.4 0 -17.7 41 41 S 6 9 30.55 1035 10 16 0.00 0.00
8:55 pm 20:55 Clear 22 -5.6 2 -16.7 42 42 S 8 13 30.55 1035 10 16 0.00 0.00
9:15 pm 21:15 Clear 22 -5.3 2 -16.6 41 41 S 8 13 30.55 1034 10 16 0.00 0.00
9:35 pm 21:35 Clear 23 -5.1 2 -16.5 41 41 S 10 17 30.55 1034 10 16 0.00 0.00
9:55 pm 21:55 Clear 22 -5.6 2 -16.5 42 42 S 10 17 30.56 1035 10 16 0.00 0.00
10:15 pm 22:15 Clear 21 -6.1 3 -16.3 45 45 S 9 15 30.58 1035 10 16 0.00 0.00
10:35 pm 22:35 Clear 21 -6.3 3 -15.9 47 47 S 10 17 30.57 1035 10 16 0.00 0.00
10:55 pm 22:55 Clear 21 -6.3 4 -15.7 48 48 S 13 20 30.57 1035 10 16 0.00 0.00
11:15 pm 23:15 Clear 20 -6.8 4 -15.7 50 50 S 10 17 30.56 1035 10 16 0.00 0.00
11:35 pm 23:35 Clear 19 -7.2 4 -15.7 51 51 S 12 19 30.57 1035 10 16 0.00 0.00
11:55 pm 23:55 Clear 19 -7.3 4 -15.5 52 52 S 10 17 30.57 1035 10 16 0.00 0.00

Powered by AerisWeather